Location: Newark
(44.2003°N, 3.2583°E)
Time: 04:23:13
(UTC+00:00)

Altair - Pass Details

Date: 24 October 2019
Orbit: 1502 x 1682 km, 47.2° (Epoch: 20 November)

Event Time Altitude Azimuth Distance (km) Brightness Sun altitude
Rises 16:58:32 0° 294° (WNW) 4,857 11.1 -2.5°
Reaches altitude 10° 17:02:03 10° 285° (WNW) 3,890 10.8 -3.1°
Maximum altitude 17:10:26 32° 227° (SW) 2,581 9.5 -4.6°
Drops below altitude 10° 17:18:57 10° 170° (S) 3,934 9.7 -6.1°
Sets 17:22:34 0° 160° (SSE) 4,918 10.0 -6.7°
